RH
10 10 9 8 6 6 6 6 6 7 8 10 13 15 16 18 21 24 28 26 35 42 52 64 54 46 49 38 36 33 35 24 25 28 28 26 26 28 29 30 30 28 33 43 50
11 10 10 9 7 6 5 6 6 6 8 10 14 16 18 20 24 25 30 33 34 42 66 50 43 45 37 26 28 28 19 21 18 20 24 25 26 28 26 28 33 37 40 45 47
10 10 10 9 8 6 5 5 5 6 7 10 14 17 19 21 29 24 22 29 36 50 45 37 36 50 33 19 18 16 22 17 17 20 23 24 26 26 25 28 32 38 43 45 45
10 10 9 9 8 7 6 4 4 5 6 9 13 18 20 20 21 22 19 24 35 51 41 37 29 26 14 15 18 17 19 19 20 20 21 22 24 24 26 26 31 38 41 42 41
11 10 9 8 8 8 6 5 4 4 6 8 13 19 20 23 27 22 20 21 31 54 34 28 21 21 14 15 14 14 18 20 23 22 20 21 22 23 26 28 32 36 38 39 38
13 11 9 8 8 7 7 6 4 4 4 6 10 17 22 16 33 22 21 24 44 39 28 25 23 24 18 15 14 16 16 19 22 22 23 21 22 21 26 28 32 34 35 37 38
14 12 10 8 8 7 6 5 4 4 4 5 7 13 18 17 36 24 27 42 33 31 25 24 24 22 17 15 18 17 18 17 19 23 24 23 27 23 24 28 32 33 34 36 39
15 13 11 9 7 6 6 5 4 4 3 4 5 9 16 19 31 36 36 31 31 31 30 27 24 23 16 15 15 18 20 16 17 20 22 27 29 25 24 26 31 31 34 37 39
16 14 12 9 8 6 6 5 4 4 3 4 8 14 15 17 27 28 29 24 27 27 28 28 25 17 13 16 15 15 13 13 18 16 15 22 26 24 25 22 27 30 33 36 40
18 15 12 10 8 6 6 5 4 3 3 4 6 13 14 16 18 21 26 24 20 20 21 24 16 11 8 11 15 12 10 10 15 16 17 15 19 22 24 21 22 27 30 33 37
18 16 12 10 8 6 6 11 16 15 14 7 9 11 12 14 16 18 23 22 19 17 16 12 12 11 9 9 9 8 9 10 10 11 15 14 19 22 21 22 22 23 24 28 31
19 16 14 10 7 8 15 16 18 18 12 8 6 8 10 12 13 16 20 19 16 15 12 11 12 9 8 8 8 8 8 9 9 10 12 13 14 18 20 20 20 21 23 23 26
21 16 13 11 9 15 20 19 20 19 10 5 7 6 8 11 13 11 15 16 14 13 12 12 10 9 9 9 8 7 8 8 12 10 10 11 14 15 16 19 20 20 20 22 22
21 18 14 10 21 14 17 20 19 20 10 4 6 7 6 10 12 12 12 12 11 13 11 10 9 10 10 9 7 8 7 8 9 10 28 10 23 13 14 17 18 18 19 20 22
27 18 17 12 10 15 20 20 20 18 10 4 5 8 6 8 11 12 12 11 11 10 10 12 10 11 11 9 7 8 7 7 8 10 7 9 9 11 11 14 15 16 16 18 20
28 26 15 25 16 18 17 20 19 11 9 5 5 6 5 6 7 10 11 11 11 10 9 10 9 9 9 8 7 6 8 8 8 8 10 8 8 9 7 10 11 12 13 15 18
22 22 18 14 21 24 19 17 13 9 5 4 4 5 5 4 5 7 10 11 12 14 13 10 10 8 9 10 8 7 7 9 9 8 8 6 7 8 7 6 7 9 12 14 17
18 19 22 14 14 20 19 13 16 7 5 5 6 5 6 5 4 4 8 10 10 10 10 12 12 9 8 10 10 8 7 8 13 10 8 7 8 7 6 6 6 8 10 12 14
17 30 30 27 25 16 17 13 11 8 6 5 4 6 6 5 5 5 6 8 8 8 11 9 9 6 7 8 8 9 9 6 6 6 8 7 6 8 6 8 8 8 10 11 8
18 27 22 25 26 21 13 14 7 6 8 8 9 5 5 5 6 5 5 4 6 7 7 8 11 6 6 7 8 8 7 7 6 11 12 7 8 8 9 8 8 8 10 7 9
30 19 26 22 22 18 13 9 7 6 9 10 9 8 6 6 6 6 5 4 4 5 7 7 8 7 6 9 9 8 9 8 6 6 9 10 8 6 10 8 8 8 10 8 10
34 17 29 24 15 11 10 8 7 7 7 9 10 8 8 8 7 6 7 4 4 4 6 6 6 8 7 7 6 7 7 7 8 10 7 7 9 6 8 7 8 8 10 11 12
32 22 23 23 14 10 9 8 8 8 8 8 9 10 8 8 10 8 7 6 4 4 6 6 7 8 7 7 7 7 7 6 6 5 8 8 7 5 6 7 8 8 10 14 16
38 19 19 23 18 16 13 13 16 13 10 8 8 7 9 10 7 9 8 6 6 5 7 8 6 7 8 8 7 9 7 7 6 7 6 6 6 8 9 8 8 9 12 16 17
32 26 31 21 17 20 22 21 21 19 14 12 9 9 9 12 11 9 7 7 7 7 6 6 8 7 5 5 5 6 7 6 6 6 6 5 6 5 7 9 10 10 14 17 15
34 36 31 25 20 19 21 19 19 17 17 18 14 12 10 10 10 12 10 8 8 7 7 5 8 7 8 6 5 6 5 5 5 5 5 4 4 4 4 5 10 12 15 17 16
44 39 39 27 18 17 17 19 21 23 24 24 22 19 16 16 12 12 12 9 8 9 11 9 6 7 9 6 6 8 6 6 5 5 5 6 5 4 5 5 8 13 16 18 18
Wind_Speed
7 7 7 5 4 3 4 5 4 4 4 5 6 8 10 12 6 9 2 2 5 7 9 6 6 6 4 10 10 11 2 9 12 8 11 10 11 8 11 11 8 8 18 20 19
8 8 7 7 5 4 5 5 5 5 5 5 6 8 9 9 5 1 2 2 3 7 11 8 11 15 16 10 4 8 11 8 8 14 10 10 11 12 10 14 15 17 20 20 18
9 8 8 8 7 5 5 6 6 5 5 5 6 7 9 8 2 7 5 5 4 9 4 8 8 12 26 17 3 19 9 10 12 14 11 12 9 10 8 13 14 18 20 19 17
10 9 8 8 9 8 6 6 7 6 6 5 5 6 7 8 2 2 4 4 4 8 1 7 18 20 15 14 5 15 8 13 12 11 9 11 10 10 5 13 16 17 19 18 16
11 10 10 9 9 9 8 7 7 7 7 6 5 5 6 8 8 2 2 4 5 4 4 8 15 17 9 1 14 15 11 13 12 7 13 10 9 9 9 13 17 19 17 16 15
12 11 11 11 10 10 10 8 7 8 8 7 6 6 7 9 2 1 2 4 3 2 3 8 10 8 9 7 13 7 9 14 11 9 8 11 10 12 10 14 18 18 17 15 14
13 12 12 11 11 11 10 10 8 7 9 8 6 6 9 2 5 3 4 6 3 4 7 6 9 11 7 7 4 11 16 15 13 9 8 12 6 15 13 16 17 16 16 15 14
14 14 13 12 11 11 11 10 9 8 8 8 7 4 8 4 7 9 9 5 6 5 5 8 8 10 7 5 13 6 18 9 10 6 7 15 11 13 15 17 17 17 15 15 15
15 15 14 13 12 11 10 9 8 8 7 6 3 5 11 5 11 12 11 7 6 6 8 10 9 14 10 7 5 19 6 10 13 7 7 10 12 14 16 18 18 17 18 17 16
16 16 15 14 12 10 7 6 5 5 6 4 7 6 15 13 12 14 14 10 7 7 12 11 13 15 12 5 7 7 5 7 8 12 6 7 15 14 18 17 18 19 20 18 19
16 15 15 13 11 8 4 3 4 7 12 15 6 18 3 9 10 15 14 12 11 12 14 14 11 11 11 9 8 8 4 2 6 10 9 3 16 14 17 16 17 18 19 20 20
17 16 14 12 8 4 5 5 5 5 11 20 21 15 8 9 12 15 16 17 18 16 18 14 13 9 9 7 9 6 8 8 6 7 8 7 5 17 17 16 17 18 18 19 20
17 16 13 11 4 5 1 0 5 7 9 18 24 28 19 17 20 20 21 22 23 17 19 18 17 6 6 10 11 10 11 8 7 9 12 4 7 13 18 18 17 16 18 19 21
18 16 13 5 3 3 1 3 8 4 6 14 17 17 27 23 23 27 22 24 23 24 20 18 18 11 13 13 12 13 2 5 3 8 14 13 11 14 15 16 17 19 19 20 21
19 16 13 7 4 2 4 6 5 4 6 8 13 4 20 27 20 24 27 20 23 19 20 20 19 12 15 17 5 6 6 8 6 11 8 10 7 12 16 15 17 19 21 21 21
18 17 12 8 5 6 5 7 4 7 11 8 7 9 18 28 29 27 27 26 22 20 22 22 21 13 15 14 6 7 9 8 10 13 11 9 8 12 11 11 16 21 19 19 21
17 15 10 4 1 7 5 5 8 10 6 8 6 10 15 19 22 27 16 20 18 16 20 22 22 15 18 15 11 12 17 11 10 10 9 11 5 4 9 3 9 17 18 18 16
15 12 7 5 7 7 4 10 11 9 18 7 4 9 13 15 20 25 25 20 24 26 16 18 20 25 18 19 19 18 18 13 7 11 6 10 7 3 13 12 7 5 10 11 12
13 6 3 3 7 6 11 12 14 11 9 8 12 12 13 15 15 20 28 24 23 24 24 17 20 18 27 22 20 20 17 18 17 15 9 5 10 7 9 11 12 13 14 11 8
13 4 5 6 4 7 10 16 18 16 3 10 16 13 17 14 16 19 20 26 26 24 28 24 20 16 21 27 27 23 18 12 9 14 14 12 7 5 17 15 14 15 15 11 9
6 7 2 3 1 12 11 15 18 26 9 14 19 19 17 15 15 14 21 20 18 27 24 19 21 19 20 19 20 13 17 14 16 14 13 10 10 17 17 16 16 16 16 14 9
5 5 1 3 10 13 12 16 16 18 22 15 18 18 17 17 19 16 19 17 17 19 28 19 15 20 22 21 22 25 22 21 14 15 13 13 2 7 15 16 19 18 17 14 9
10 9 3 2 7 8 11 14 11 16 17 19 20 19 21 21 18 16 21 21 20 15 20 17 19 18 22 18 21 24 25 16 22 20 17 13 12 10 11 13 20 19 19 16 12
8 4 3 6 8 10 13 12 13 20 19 21 21 24 22 20 19 17 15 12 17 16 12 17 21 19 19 22 16 18 23 21 20 15 17 18 17 10 9 12 17 18 20 18 15
4 5 6 7 8 14 12 14 16 17 19 20 16 21 23 21 21 23 20 18 17 17 19 18 21 24 24 25 23 26 23 24 27 23 23 20 15 16 12 15 16 18 22 20 18
9 8 13 18 19 16 13 15 17 16 17 16 19 18 18 21 23 22 24 22 20 17 21 22 22 22 24 25 26 25 20 25 25 23 23 21 21 16 17 13 20 19 25 24 23
10 9 11 12 16 12 12 14 16 19 17 17 18 19 21 16 22 23 22 30 27 19 12 18 21 22 23 23 25 24 24 20 18 18 17 19 18 10 9 10 16 22 23 27 26
Wind_Direction
14 8 358 2 350 336 324 324 329 329 332 337 348 355 355 353 18 88 61 272 186 176 174 150 186 195 207 265 253 245 289 69 83 115 107 129 103 79 115 127 104 82 134 138 142
13 2 355 349 347 333 317 315 313 313 317 329 341 348 354 0 61 210 1 77 135 172 146 181 205 204 193 166 241 245 52 55 10 116 117 117 104 124 118 113 100 99 116 134 142
7 0 348 341 339 327 308 301 303 300 302 313 328 339 348 349 200 77 57 76 111 123 158 270 246 240 241 111 9 53 68 78 66 85 124 110 120 153 112 128 132 130 137 144 148
2 356 349 336 328 323 309 289 289 288 285 290 308 324 337 312 89 87 78 93 117 121 221 287 281 280 73 76 138 90 75 89 103 107 129 117 118 102 44 120 133 139 145 146 154
3 355 346 337 325 318 312 298 282 282 278 279 291 310 322 263 71 63 102 119 141 107 284 342 360 343 48 219 82 94 99 99 106 128 96 126 124 91 104 130 132 140 149 150 152
359 354 346 336 326 313 307 300 284 278 278 275 279 287 299 272 125 36 142 130 137 178 342 332 350 336 313 16 65 90 112 123 125 112 126 119 118 110 133 145 138 147 149 154 146
355 350 346 338 328 317 304 298 287 270 271 274 275 283 280 15 178 165 167 159 205 249 312 335 328 317 325 141 159 197 144 139 131 158 145 136 150 109 141 150 151 157 158 148 147
352 348 344 339 328 317 307 296 285 274 261 264 273 277 279 175 179 182 186 215 236 255 286 305 316 286 277 195 198 278 138 118 124 180 144 204 101 136 153 159 165 166 166 162 160
351 347 343 338 330 320 307 297 288 274 258 249 276 245 250 213 199 200 199 221 241 259 268 280 289 275 230 260 259 150 102 111 139 187 146 227 127 151 173 166 174 178 179 180 181
351 347 342 338 334 327 314 300 296 281 251 240 237 247 242 231 209 202 207 220 240 255 267 253 245 253 221 179 5 18 358 123 133 149 240 218 118 159 182 173 177 188 187 190 190
348 348 343 340 337 341 339 306 261 238 217 229 264 225 247 198 182 204 206 214 240 249 270 219 288 279 16 14 345 293 285 5 94 130 221 193 136 161 179 184 183 188 196 194 202
344 345 345 344 343 21 50 301 14 337 287 247 238 239 232 214 221 214 203 212 217 251 247 236 240 278 20 292 289 299 247 157 122 151 256 137 206 155 180 192 190 189 191 196 199
342 342 343 347 25 17 13 323 333 331 258 258 226 228 226 222 234 226 201 223 247 239 252 263 261 74 254 295 269 222 275 117 112 178 219 205 247 167 171 188 191 200 192 197 196
338 339 340 356 45 335 211 329 329 301 271 212 206 234 221 221 237 233 211 234 232 250 254 257 246 259 258 267 280 273 132 287 226 230 210 207 217 179 177 187 191 201 197 195 196
334 334 336 335 287 313 267 313 311 281 274 106 158 207 209 205 223 214 230 222 248 250 241 255 246 238 244 249 340 328 235 225 268 277 247 182 273 152 174 182 189 212 197 201 194
330 329 331 336 299 268 293 299 287 230 249 151 162 207 210 215 230 246 196 223 241 241 262 240 250 242 251 243 231 309 241 236 236 253 262 172 275 172 160 193 189 186 210 205 195
329 323 318 286 281 287 283 248 232 238 112 216 215 205 212 215 220 226 198 210 225 229 233 241 229 222 237 264 213 239 248 231 214 221 253 93 274 81 112 166 192 181 186 199 209
329 322 311 275 259 262 239 231 246 255 242 143 284 278 240 218 213 218 225 219 215 234 245 223 223 223 217 228 250 208 252 255 209 257 175 124 225 183 143 151 151 169 150 196 214
334 340 305 289 271 227 232 225 232 248 307 299 277 245 257 228 242 209 226 227 227 211 238 243 227 232 218 224 230 258 242 267 289 288 268 220 176 141 164 171 171 186 159 187 175
342 308 224 304 254 207 234 251 263 276 222 295 272 273 258 244 204 238 227 227 237 231 216 245 263 241 220 214 222 238 269 222 238 269 272 218 199 255 169 178 180 190 170 153 157
0 279 175 327 268 226 237 244 250 264 239 265 271 275 278 278 292 247 238 236 223 239 233 225 252 248 217 206 224 212 247 254 278 222 248 236 237 168 174 176 187 185 186 163 165
314 276 330 299 254 233 245 251 268 294 288 264 256 278 286 289 289 261 274 250 241 242 234 223 241 244 245 194 221 241 218 233 241 246 275 286 20 107 165 175 194 188 171 155 164
320 294 297 251 263 261 239 255 271 273 266 277 274 256 274 276 271 267 271 273 256 225 237 232 227 249 235 224 212 230 240 248 227 244 236 247 250 165 148 182 198 193 165 158 167
314 298 200 240 271 282 290 293 288 270 257 266 272 278 269 259 255 263 271 269 274 273 294 297 235 229 242 230 216 210 237 244 256 254 249 237 247 139 167 208 206 197 167 171 181
324 23 348 301 317 336 317 299 290 284 280 274 259 255 258 265 258 260 257 268 272 247 264 257 248 246 242 256 251 220 206 221 237 242 248 248 213 249 182 184 202 209 177 178 187
332 349 328 294 281 272 268 262 269 278 282 271 264 269 263 257 255 269 274 267 254 252 216 233 242 253 240 246 253 254 241 227 221 230 249 262 255 209 215 231 183 213 185 190 193
338 312 295 296 285 278 285 307 303 307 297 297 290 287 274 286 285 286 288 280 290 282 259 233 232 238 245 242 246 238 241 229 250 214 234 241 249 262 260 199 188 196 207 202 202